Regional Weather Roundup
Issued by NWS Green Bay, WI

Home | Current Version | Previous Version | Graphics & Text | Print | Product List | Glossary Off
Versions: 1 2 3 4 5 6 7 8 9 10 11 12 13 14 15 16 17 18 19 20 21 22 23 24 25 26 27 28 29 30 31 32 33 34 35 36 37 38 39 40 41 42 43 44 45 46 47 48 49 50

000
ASUS43 KGRB 151759
RWRGRB

NORTH-CENTRAL AND NORTHEAST WISCONSIN REGIONAL WEATHER ROUNDUP
NATIONAL WEATHER SERVICE GREEN BAY WI
100 PM CDT TUE APR 15 2014

WIZ005-009-010>012-018-019-151900-
NORTH CENTRAL WISCONSIN

CITY           SKY/WX    TMP DP  RH WIND       PRES   REMARKS
IRONWOOD       PTSUNNY   23   9  54 NW14      30.04S
MANITOWISH WTR NOT AVBL
ARBOR VITAE    NOT AVBL
EAGLE RIVER    NOT AVBL
LAND O LAKES   NOT AVBL
RHINELANDER    PTSUNNY   25   9  50 W12       30.02S
PHILLIPS       NOT AVBL
ANTIGO         NOT AVBL
TOMAHAWK       NOT AVBL
MERRILL        NOT AVBL
$$

WIZ013-073-151900-
NORTHEAST WISCONSIN

CITY           SKY/WX    TMP DP  RH WIND       PRES   REMARKS
IRON MOUNTAIN  LGT SNOW  25  11  55 W9G21     30.00F
MARINETTE      CLOUDY    27  12  54 CALM      30.06F
$$

WIZ017-030-035>037-045-151900-
CENTRAL WISCONSIN

CITY           SKY/WX    TMP DP  RH WIND       PRES   REMARKS
MEDFORD        NOT AVBL
WAUSAU         CLOUDY    27  13  55 NW13      30.05F
MOSINEE        NOT AVBL
MARSHFIELD     PTSUNNY   28  11  48 W9        30.08S
WISC RAPIDS    MIX PCPN  28  11  48 NW10      30.11S
STEVENS POINT  NOT AVBL
WAUPACA        NOT AVBL
SHAWANO        NOT AVBL
CLINTONVILLE   NOT AVBL
$$

WIZ038-039-048-051-151900-
FOX VALLEY

CITY           SKY/WX    TMP DP  RH WIND       PRES   REMARKS
NWS GREEN BAY  PTSUNNY   29  16  58 W13G22    30.10S
APPLETON       PTSUNNY  N/A N/A N/A W9        30.10S
OSHKOSH        FLURRIES  29  15  56 W8        30.10F
FOND DU LAC    MOSUNNY   30  14  51 W8        30.11F
$$

WIZ022-050-052-151900-
EAST CENTRAL WISCONSIN

CITY           SKY/WX    TMP DP  RH WIND       PRES   REMARKS
STURGEON BAY   PTSUNNY   27  10  50 W7G16     30.08S
MANITOWOC      NOT AVBL
SHEBOYGAN      PTSUNNY   29  13  51 W12G23    30.11S
$$

LMZ563-521-522-541>543-151900-
LAKESHORE

STATION/POSITION TIME  TEMP    WIND        PRES    VSBY  WAVE
                       AIR SEA DIR/SP/G                  HT/PER
                 (UTC) (F)     (DEG/KT/KT) (MB)    (MI)  (FT/S)
SHEBOYGAN LKSHOR 1700   29     300/ 11/ 14 1020.9R
KEWAUNEE LKSHORE 1700   29     310/  8/ 15 1019.7F
NORTHPORT PIER   1700   24     330/  7/ 10 1018.6S
SISTER BAY LKSHO 1700             CALM       N/A
MENOMINEE LKSHOR 1700   28     190/  4/  8 1019.1R
$$



USA.gov is the U.S. government's official web portal to all federal, state and local government web resources and services.